Wind_Speed
24 25 23 27 28 20 11 10 13 10 4 4 7 9 5 3 3 2 2 2 3 3 3 4 4 6 6 5 5 3 1 0 2 2 3 4 6 9 7 6 5 5 5
20 20 21 26 25 21 11 9 8 12 9 2 2 3 9 6 4 3 3 3 3 3 4 5 6 7 5 6 5 4 2 1 1 1 3 4 5 7 7 7 7 8 8
17 19 20 24 24 17 14 10 9 8 9 9 5 4 4 4 5 2 4 6 6 7 6 7 7 7 6 6 7 6 3 3 2 2 4 5 6 8 9 8 9 8 7
17 18 19 22 21 22 16 14 12 11 11 9 8 5 1 6 6 3 3 3 6 9 8 8 7 7 8 7 8 8 6 6 5 4 6 7 7 9 9 10 9 8 8
16 17 17 21 21 21 21 20 18 18 18 14 11 9 8 4 6 8 9 10 9 9 8 8 8 7 7 7 6 11 9 8 7 7 7 9 9 10 12 12 11 8 7
13 15 17 18 18 21 21 20 19 20 19 17 14 11 10 11 9 8 10 12 11 10 10 8 9 9 10 9 9 10 10 10 9 10 10 11 11 12 15 15 10 8 7
15 17 17 17 18 19 20 19 19 19 19 18 17 15 13 11 11 13 13 14 13 13 13 12 9 11 12 11 11 12 12 13 11 12 12 13 13 14 15 19 11 8 7
12 13 14 15 16 17 17 17 18 18 19 19 18 16 16 15 12 14 15 16 15 15 15 14 15 11 12 14 13 13 14 14 14 15 15 15 15 15 17 23 14 10 8
11 12 13 14 15 16 19 21 19 18 18 19 18 18 18 17 16 16 16 19 19 18 18 18 19 18 17 16 16 15 16 17 17 17 17 17 16 15 14 20 15 12 9
9 11 13 16 17 18 18 19 22 23 21 19 19 20 17 17 17 16 18 20 21 23 22 21 21 21 20 19 18 18 18 19 20 19 20 20 19 17 16 17 17 14 12
11 14 16 17 18 19 21 22 23 23 24 25 23 21 21 21 19 18 19 19 21 21 22 24 24 23 23 22 22 21 20 22 22 23 22 22 23 21 21 19 19 15 15
13 15 17 19 21 22 22 23 24 25 26 27 27 27 26 24 24 23 22 21 21 22 24 23 23 25 26 26 25 25 23 24 25 26 25 25 26 25 24 23 21 18 18
16 17 19 21 22 24 26 27 27 29 30 30 30 29 29 28 27 26 26 25 24 22 22 23 27 25 28 29 29 28 27 26 27 28 28 27 29 28 26 24 24 22 20
13 16 18 20 23 25 28 30 33 34 33 31 31 32 33 32 30 29 27 28 28 27 25 23 23 28 30 28 31 33 31 30 27 31 31 29 30 32 29 28 26 27 24
13 16 19 21 23 25 27 28 29 29 29 30 33 33 31 30 32 31 29 29 28 28 29 28 25 25 28 33 31 32 35 35 33 30 35 32 31 34 34 31 27 27 28
12 14 17 19 22 24 25 27 28 28 27 26 25 24 27 32 33 30 30 29 29 29 28 30 30 28 26 28 35 33 33 39 38 35 35 36 34 34 38 37 32 28 29
15 19 22 25 27 28 31 33 35 35 34 32 29 25 24 25 27 32 33 30 29 30 30 29 30 31 29 30 30 36 38 34 40 39 30 38 38 37 37 41 38 33 29
16 20 22 25 27 28 29 29 28 29 33 36 37 35 30 27 25 26 28 32 32 28 29 30 31 31 32 31 33 33 37 43 37 39 38 38 42 41 40 39 42 39 34
16 20 23 25 27 27 26 25 24 24 25 26 27 30 33 33 30 27 26 26 29 32 27 27 30 31 33 33 33 36 36 39 43 41 42 42 44 43 44 42 41 42 40
17 21 24 25 25 26 28 28 26 25 26 27 27 26 27 29 31 31 28 26 26 28 30 27 27 28 30 32 36 36 37 39 41 47 41 45 45 46 46 46 44 41 41
17 22 24 25 24 25 29 31 31 31 30 30 30 29 28 27 27 29 30 28 26 26 26 28 28 28 27 29 32 34 38 39 39 43 48 45 45 50 46 47 48 46 42
19 23 24 24 24 26 29 31 31 31 30 29 28 28 28 28 29 28 28 29 26 26 25 25 26 27 24 21 23 25 17 29 27 37 43 48 52 44 49 46 50 48 48
20 24 25 24 25 27 29 30 30 30 30 30 29 28 28 28 28 28 27 27 27 25 24 24 24 24 22 23 19 11 7 7 23 20 27 40 43 45 48 46 51 52 51
21 24 25 24 26 28 28 29 29 29 30 30 30 31 30 29 29 28 27 26 26 25 25 23 23 24 23 25 23 11 13 19 8 16 16 25 37 46 49 49 53 55 52
22 25 25 25 26 27 27 27 28 28 29 31 31 32 31 31 30 29 28 27 27 27 26 25 24 24 23 24 23 17 18 25 26 24 29 31 22 36 28 48 48 52 56
23 25 25 26 27 27 27 26 26 27 28 31 31 32 32 32 32 31 30 29 29 28 27 27 25 25 24 24 25 21 19 16 15 15 19 27 34 27 23 33 48 49 53
Wind_Direction
356 356 2 12 14 20 42 17 27 46 126 103 83 56 3 342 311 322 316 283 255 261 234 226 233 232 208 207 202 207 198 125 346 15 120 130 151 179 178 167 152 140 130
349 355 357 12 13 20 33 18 353 11 8 320 205 70 53 18 315 301 290 276 265 252 271 265 263 258 221 235 223 230 231 282 301 295 165 164 158 168 170 162 145 127 119
1 2 1 10 11 10 23 19 5 349 335 3 351 232 183 94 72 345 283 264 256 256 258 275 280 261 248 256 247 248 253 256 241 230 208 186 178 173 168 159 146 128 113
7 8 4 10 7 8 12 9 357 358 345 331 316 339 281 198 199 190 228 250 268 258 261 268 266 251 251 237 261 266 265 251 239 222 212 210 200 189 183 173 161 141 116
10 12 12 14 8 2 355 355 353 348 341 332 326 294 301 303 232 218 226 235 240 249 260 263 263 262 260 257 268 264 260 249 241 224 229 222 216 206 199 188 167 151 131
21 16 12 13 5 6 3 352 342 343 341 336 325 329 302 282 286 276 258 253 245 242 249 255 266 263 264 262 263 267 259 246 237 231 239 236 224 217 206 194 176 164 149
17 16 15 4 1 1 356 352 346 339 337 336 337 330 330 308 293 277 276 269 256 251 246 244 246 260 260 257 262 262 259 249 239 241 242 240 232 223 210 200 194 183 165
20 17 10 6 4 2 356 350 345 340 336 336 334 329 323 317 314 305 293 276 267 258 254 254 247 243 251 256 254 253 254 249 245 242 243 239 238 225 224 206 197 198 190
21 15 12 10 6 358 355 357 354 347 339 331 327 325 319 321 315 304 301 290 276 266 262 255 251 247 246 242 247 248 248 247 249 246 239 237 234 225 211 202 200 206 203
22 16 13 9 5 1 360 354 352 347 343 336 327 321 316 314 311 306 298 288 285 277 266 264 260 254 251 249 248 247 247 245 250 246 237 234 229 223 210 206 214 218 214
28 21 18 13 9 5 0 357 354 349 344 337 330 325 315 316 310 303 297 290 286 282 279 268 263 260 255 250 246 244 245 245 246 245 238 231 226 226 228 230 222 227 222
26 22 18 12 9 7 3 357 353 350 347 342 336 331 326 320 314 309 303 296 291 283 277 273 269 262 258 254 250 245 242 247 246 245 239 232 228 228 230 235 231 231 226
28 20 15 11 7 2 360 358 354 350 345 341 336 330 326 322 317 310 305 300 293 286 279 272 263 267 261 258 253 248 242 240 245 245 243 233 229 229 228 231 229 229 228
24 17 12 8 4 1 358 354 351 347 343 337 332 328 324 320 318 315 311 306 301 296 292 285 272 262 259 262 258 253 245 241 242 245 244 236 231 228 229 231 231 225 228
19 15 9 3 359 357 353 350 347 343 338 334 330 327 324 320 317 316 313 308 305 300 296 293 285 272 263 257 258 257 253 244 239 244 243 239 232 229 229 230 230 227 229
16 7 3 357 355 352 349 347 344 341 339 335 330 323 317 319 319 316 313 310 306 302 298 293 293 284 273 265 256 256 254 250 243 236 245 239 234 230 229 231 230 229 229
14 9 3 360 356 352 351 349 347 345 343 341 338 334 328 319 313 313 315 313 307 303 300 297 291 288 282 274 265 255 254 252 246 240 243 241 237 230 229 231 232 231 232
11 5 360 355 349 346 343 339 333 327 326 329 332 334 334 329 321 314 311 311 312 307 302 300 297 291 288 281 273 262 254 249 248 242 235 244 237 233 229 230 233 232 232
3 357 353 347 342 339 335 331 326 320 318 317 317 319 323 327 328 323 316 310 308 309 307 301 298 297 294 288 281 269 262 254 247 247 241 240 244 233 231 230 231 233 231
358 353 348 345 341 338 336 334 332 329 325 324 323 322 319 319 321 323 322 317 310 306 307 305 300 295 298 294 287 281 270 258 249 243 242 237 245 236 232 232 231 232 231
349 347 344 341 338 336 337 336 333 332 328 325 324 322 321 319 318 318 320 321 317 310 306 306 306 302 297 297 298 290 276 266 258 246 243 238 243 242 233 232 231 232 231
343 341 340 337 334 334 333 330 326 324 322 319 319 317 318 317 317 317 317 316 316 312 308 305 305 304 300 297 307 311 313 284 263 251 243 242 238 241 238 232 229 229 232
337 337 335 332 329 328 327 324 323 320 319 320 320 318 317 316 315 313 312 313 313 311 308 307 304 303 298 293 300 287 312 297 299 251 240 239 240 242 246 240 229 228 229
331 330 329 326 323 323 323 321 321 317 316 317 316 316 315 314 313 313 311 309 308 308 306 304 302 297 296 292 292 280 251 267 304 309 243 225 228 242 245 240 234 235 231
323 325 325 321 319 320 322 319 317 314 313 313 314 314 314 313 310 310 309 307 304 303 302 301 296 294 290 287 286 287 279 251 256 267 286 276 240 225 233 240 242 243 231
318 321 321 318 319 322 320 318 317 313 314 313 314 312 312 311 310 310 309 306 303 300 298 296 293 289 287 282 279 275 271 269 248 280 286 287 284 251 254 222 239 238 234
Height
1568 1565 1562 1560 1558 1556 1554 1554 1553 1551 1546 1548 1548 1550 1551 1550 1550 1549 1550 1550 1550 1550 1551 1550 1550 1549 1550 1550 1551 1551 1552 1552 1553 1553 1552 1552 1553 1554 1554 1555 1555 1555 1554
1570 1566 1564 1559 1557 1555 1554 1553 1553 1551 1550 1548 1547 1547 1548 1549 1550 1550 1550 1550 1549 1549 1549 1550 1549 1550 1545 1552 1551 1551 1552 1551 1552 1553 1552 1553 1553 1554 1555 1555 1555 1555 1555
1571 1567 1562 1561 1560 1556 1553 1552 1551 1551 1551 1549 1548 1546 1547 1547 1547 1548 1550 1549 1549 1548 1548 1548 1549 1550 1551 1550 1552 1551 1550 1551 1551 1553 1553 1553 1553 1553 1554 1555 1556 1556 1555
1570 1567 1563 1562 1559 1556 1553 1553 1550 1549 1548 1548 1549 1549 1547 1546 1544 1545 1545 1547 1547 1547 1547 1547 1547 1548 1550 1547 1550 1550 1550 1551 1551 1551 1553 1552 1553 1553 1554 1554 1555 1556 1555
1569 1568 1568 1564 1561 1558 1555 1553 1550 1548 1548 1547 1547 1547 1547 1546 1544 1544 1544 1544 1544 1544 1545 1545 1546 1547 1548 1548 1548 1549 1549 1550 1550 1550 1552 1552 1552 1553 1553 1554 1555 1555 1555
1570 1567 1563 1561 1561 1556 1554 1553 1550 1548 1548 1547 1546 1546 1545 1546 1545 1543 1543 1543 1542 1542 1543 1543 1544 1545 1545 1546 1546 1547 1548 1548 1549 1549 1550 1551 1551 1552 1552 1554 1554 1555 1555
1568 1566 1565 1562 1557 1555 1554 1551 1549 1548 1547 1546 1545 1545 1544 1544 1543 1542 1542 1542 1540 1540 1539 1540 1541 1542 1543 1543 1544 1544 1545 1546 1547 1548 1548 1549 1549 1550 1551 1552 1553 1554 1554
1568 1566 1563 1561 1558 1556 1555 1552 1549 1547 1545 1544 1544 1543 1543 1541 1541 1540 1539 1540 1539 1538 1537 1537 1537 1538 1539 1540 1541 1542 1542 1543 1544 1546 1546 1546 1547 1547 1549 1549 1551 1552 1553
1565 1563 1561 1558 1556 1555 1551 1549 1547 1545 1543 1541 1541 1540 1540 1539 1538 1537 1538 1538 1536 1535 1534 1533 1534 1534 1534 1534 1537 1538 1539 1540 1541 1542 1543 1543 1544 1546 1546 1547 1549 1551 1552
1564 1562 1560 1558 1556 1554 1551 1549 1546 1543 1541 1540 1538 1537 1536 1537 1535 1534 1535 1534 1533 1532 1531 1530 1531 1530 1531 1532 1534 1535 1536 1537 1536 1538 1539 1540 1541 1543 1545 1547 1547 1548 1549
1562 1560 1558 1557 1554 1552 1550 1548 1545 1542 1539 1536 1535 1535 1533 1531 1530 1530 1530 1529 1528 1528 1527 1526 1526 1526 1527 1528 1529 1530 1531 1532 1533 1534 1534 1536 1538 1539 1541 1543 1545 1546 1548
1560 1558 1556 1554 1552 1551 1549 1546 1544 1541 1538 1536 1534 1532 1531 1529 1527 1526 1525 1524 1523 1522 1521 1521 1521 1521 1522 1522 1523 1525 1526 1528 1529 1529 1529 1532 1534 1536 1537 1539 1542 1544 1545
1559 1557 1555 1553 1551 1549 1546 1544 1542 1539 1537 1534 1532 1529 1527 1525 1524 1523 1519 1518 1518 1517 1516 1516 1516 1516 1517 1517 1517 1519 1521 1522 1524 1524 1524 1526 1529 1531 1533 1534 1537 1540 1542
1558 1557 1555 1553 1551 1549 1546 1543 1539 1536 1534 1533 1530 1526 1522 1520 1518 1517 1515 1513 1511 1509 1509 1508 1508 1509 1510 1510 1510 1512 1513 1515 1517 1518 1518 1521 1523 1526 1528 1530 1532 1535 1538
1556 1555 1553 1552 1550 1548 1546 1543 1541 1538 1534 1531 1526 1522 1519 1517 1513 1511 1510 1508 1507 1505 1502 1501 1501 1501 1501 1503 1504 1504 1506 1507 1509 1511 1512 1514 1517 1520 1523 1525 1527 1530 1533
1555 1554 1553 1551 1549 1547 1544 1541 1538 1534 1531 1528 1526 1522 1518 1512 1509 1508 1506 1504 1501 1500 1499 1496 1494 1494 1494 1493 1495 1496 1497 1499 1501 1502 1505 1507 1510 1512 1516 1519 1522 1524 1527
1554 1552 1550 1547 1544 1541 1537 1533 1529 1525 1523 1521 1519 1518 1515 1512 1509 1504 1499 1499 1497 1494 1492 1491 1489 1488 1486 1486 1486 1487 1489 1490 1491 1494 1497 1499 1502 1505 1508 1512 1515 1518 1521
1552 1550 1547 1545 1543 1540 1537 1535 1533 1530 1525 1519 1514 1511 1509 1508 1505 1502 1499 1495 1490 1490 1487 1485 1483 1481 1479 1479 1478 1478 1477 1480 1482 1485 1488 1490 1493 1497 1500 1503 1508 1511 1514
1550 1548 1546 1543 1540 1537 1536 1533 1532 1529 1526 1522 1518 1513 1508 1503 1500 1498 1496 1492 1488 1483 1483 1480 1478 1475 1473 1471 1468 1468 1469 1469 1472 1475 1476 1480 1483 1487 1491 1495 1500 1503 1506
1548 1545 1543 1540 1536 1533 1530 1528 1526 1523 1520 1516 1514 1510 1507 1502 1497 1493 1490 1488 1485 1481 1479 1475 1472 1472 1468 1465 1460 1459 1459 1458 1460 1463 1466 1470 1474 1477 1481 1486 1491 1494 1498
1545 1542 1538 1534 1532 1528 1525 1521 1518 1515 1512 1510 1508 1504 1501 1498 1495 1490 1486 1483 1481 1477 1474 1470 1467 1465 1463 1461 1456 1450 1449 1449 1450 1452 1457 1460 1462 1465 1472 1475 1480 1485 1490
1542 1539 1535 1531 1527 1524 1521 1519 1514 1510 1508 1506 1503 1499 1496 1492 1489 1485 1481 1477 1475 1471 1470 1467 1463 1461 1459 1458 1455 1452 1445 1442 1443 1441 1444 1448 1450 1452 1459 1464 1470 1473 1480
1538 1535 1531 1528 1524 1521 1517 1513 1510 1507 1502 1499 1497 1493 1490 1487 1483 1480 1477 1473 1469 1467 1464 1461 1460 1457 1454 1455 1455 1455 1451 1445 1435 1434 1436 1438 1442 1444 1447 1452 1458 1463 1468
1532 1530 1526 1523 1520 1516 1513 1509 1505 1501 1497 1494 1490 1486 1484 1481 1478 1475 1472 1469 1465 1461 1459 1458 1455 1453 1451 1449 1448 1451 1450 1448 1446 1433 1426 1427 1433 1438 1438 1440 1445 1453 1457
1527 1524 1521 1518 1515 1512 1508 1504 1500 1496 1492 1488 1484 1480 1477 1475 1472 1469 1466 1463 1459 1456 1453 1452 1450 1448 1446 1445 1444 1444 1443 1443 1443 1441 1431 1420 1418 1421 1424 1431 1437 1440 1447
1523 1519 1515 1512 1510 1506 1502 1499 1494 1490 1486 1482 1478 1475 1471 1468 1465 1462 1459 1456 1453 1450 1448 1445 1444 1442 1441 1440 1439 1438 1438 1439 1437 1436 1431 1424 1419 1413 1416 1416 1424 1426 1434